Hourly Data Report for February 08, 2005

TORONTO CITY
ONTARIO

43°40'00.000" N
79°24'00.000" W
112.50 m
6158355
71508
XTO

Download Data

Hourly Data (February 2005)
Hourly Data Report for February 8, 2005
TIME
LST
Temp Definition
°C
Dew Point Definition
°C
Rel Hum Definition
%
Precip. Amount Definition
mm

Wind Dir Definition
10's deg

Wind Spd Definition
km/h
Visibility Definition
km
Stn Press Definition
kPa
Hmdx Definition


Wind Chill Definition


Weather Definition


00:00 3.8 3.4 97   LegendMM LegendMM   100.31     LegendNANA
01:00 3.3 3.0 98   LegendMM LegendMM   100.27     LegendNANA
02:00 3.4 3.2 99   LegendMM LegendMM   100.21     LegendNANA
03:00 3.6 3.4 99   LegendMM LegendMM   100.15     LegendNANA
04:00 3.9 3.7 99   LegendMM LegendMM   100.13     LegendNANA
05:00 3.7 3.5 99   LegendMM LegendMM   100.09     LegendNANA
06:00 3.7 3.6 99   LegendMM LegendMM   100.16     LegendNANA
07:00 3.6 3.5 99   LegendMM LegendMM   100.13     LegendNANA
08:00 3.9 3.8 99   LegendMM LegendMM   100.15     LegendNANA
09:00 4.4 4.3 99   LegendMM LegendMM   100.15     LegendNANA
10:00 4.4 4.3 99   LegendMM LegendMM   100.17     LegendNANA
11:00 4.9 4.7 99   LegendMM LegendMM   100.16     LegendNANA
12:00 5.4 4.5 94   LegendMM LegendMM   100.15     LegendNANA
13:00 5.7 4.1 89   LegendMM LegendMM   100.11     LegendNANA
14:00 5.4 3.6 88   LegendMM LegendMM   100.11     LegendNANA
15:00 4.6 2.7 87   LegendMM LegendMM   100.13     LegendNANA
16:00 3.3 0.6 82   LegendMM LegendMM   100.23     LegendNANA
17:00 2.2 -0.5 82   LegendMM LegendMM   100.31     LegendNANA
18:00 0.9 -1.6 83   LegendMM LegendMM   100.36     LegendNANA
19:00 0.2 -2.1 84   LegendMM LegendMM   100.44     LegendNANA
20:00 -0.9 -3.2 84   LegendMM LegendMM   100.49     LegendNANA
21:00 -1.1 -3.8 82   LegendMM LegendMM   100.51     LegendNANA
22:00 -1.6 -4.4 81   LegendMM LegendMM   100.49     LegendNANA
23:00 -1.8 -4.5 82   LegendMM LegendMM   100.47     LegendNANA

Notes on Data Quality.

Legend

  • E = Estimated
  • M = Missing
  • NA = Not Available*
  • [empty] = Indicates an unobserved value
Date modified: